TimeEST,TemperatureF,Dew PointF,Humidity,Sea Level PressureIn,VisibilityMPH,Wind Direction,Wind SpeedMPH,Gust SpeedMPH,PrecipitationIn,Events,Conditions,WindDirDegrees,DateUTC
12:53 AM,37.0,35.1,93,30.30,10.0,Calm,Calm,-,N/A,,Clear,0,2011-11-08 05:53:00
1:53 AM,36.0,34.0,93,30.28,10.0,Calm,Calm,-,N/A,,Clear,0,2011-11-08 06:53:00
2:53 AM,37.0,34.0,89,30.28,10.0,Calm,Calm,-,N/A,,Clear,0,2011-11-08 07:53:00
3:53 AM,34.0,32.0,92,30.27,10.0,Calm,Calm,-,N/A,,Clear,0,2011-11-08 08:53:00
4:53 AM,33.1,30.9,92,30.29,9.0,Calm,Calm,-,N/A,,Clear,0,2011-11-08 09:53:00
5:53 AM,34.0,30.9,89,30.28,10.0,Calm,Calm,-,N/A,,Clear,0,2011-11-08 10:53:00
6:53 AM,33.1,30.9,92,30.28,8.0,Calm,Calm,-,N/A,,Clear,0,2011-11-08 11:53:00
7:53 AM,39.0,36.0,89,30.30,10.0,South,3.5,-,N/A,,Clear,170,2011-11-08 12:53:00
8:53 AM,48.0,39.9,74,30.31,10.0,Calm,Calm,-,N/A,,Clear,0,2011-11-08 13:53:00
9:53 AM,55.0,39.9,57,30.30,10.0,Calm,Calm,-,N/A,,Clear,0,2011-11-08 14:53:00
10:53 AM,62.1,39.0,43,30.29,10.0,Calm,Calm,-,N/A,,Clear,0,2011-11-08 15:53:00
11:53 AM,66.0,30.9,27,30.26,10.0,Variable,3.5,-,N/A,,Clear,0,2011-11-08 16:53:00
12:53 PM,66.9,34.0,30,30.23,10.0,ESE,3.5,-,N/A,,Clear,120,2011-11-08 17:53:00
2:53 PM,68.0,30.0,24,30.21,10.0,SE,3.5,-,N/A,,Clear,130,2011-11-08 19:53:00
3:53 PM,66.9,30.9,26,30.20,10.0,SSE,3.5,-,N/A,,Clear,150,2011-11-08 20:53:00
4:53 PM,62.1,30.9,31,30.20,10.0,SSE,3.5,-,N/A,,Clear,150,2011-11-08 21:53:00
5:53 PM,57.9,32.0,37,30.22,10.0,Calm,Calm,-,N/A,,Clear,0,2011-11-08 22:53:00
6:53 PM,54.0,32.0,43,30.23,10.0,Calm,Calm,-,N/A,,Clear,0,2011-11-08 23:53:00
7:53 PM,48.0,34.0,58,30.23,10.0,Calm,Calm,-,N/A,,Clear,0,2011-11-09 00:53:00
8:53 PM,45.0,35.1,68,30.23,10.0,Calm,Calm,-,N/A,,Clear,0,2011-11-09 01:53:00
9:53 PM,44.1,34.0,68,30.22,10.0,Calm,Calm,-,N/A,,Clear,0,2011-11-09 02:53:00
10:53 PM,42.1,35.1,76,30.21,10.0,Calm,Calm,-,N/A,,Clear,0,2011-11-09 03:53:00
11:53 PM,39.2,33.8,81,30.21,10.0,Calm,Calm,-,N/A,,Clear,0,2011-11-09 04:53:00